CANX-5

Last updated on Wed Jul 16 2025 00:03:46 GMT+0000 (Coordinated Universal Time)

1 40056U 14034D 25196.58096921 .00000713 00000+0 10107-3 0 9992 2 40056 98.3592 53.8084 0013396 17.9560 342.2121 14.80297734585526
UTC large
Height (km)
Speed (km/s)
/
Latitude / Longitude
Inclination (degrees)
Orbital Period (minutes)
Azimuth
Elevation
Range (km)
Doppler Factor

Next 0 passes for location: London (51.5072 / 0.1276)

Sorry there are no passes over London.